Location: London
(42.9830°N, 81.2500°W)
Time: 05:21:49
(UTC-04:00)

Amateur Radio Satellites - All Passes

Search period start: 19 August 2017 04:51
Search period end: 20 August 2017 04:51
Location: London, 42.9830°N, 81.2500°W

Satellite Date Start Highest point End Downlink Frequencies (MHz)
Time Altitude Azimuth
AO-7 19 Aug 04:55:57 05:04:15 64° 104° (ESE) 05:12:27 .
STARS 19 Aug 05:32:19 05:36:23 38° 70° (ENE) 05:40:28 437.465
BEESAT 3 19 Aug 05:46:58 05:50:11 24° 114° (ESE) 05:53:26 437.485
YUBILEINY 19 Aug 05:48:56 05:55:53 28° 279° (W) 06:02:49 435.215
AO-85 19 Aug 05:56:32 05:59:17 18° 112° (ESE) 06:02:01 145.980
ITAMSAT 1 19 Aug 05:56:57 06:01:40 37° 293° (WNW) 06:06:23 435.822/435.867
CUBESAT XI-V 19 Aug 06:12:46 06:16:01 19° 268° (W) 06:19:18 437.345
DOVE 4 19 Aug 06:22:54 06:27:10 36° 96° (E) 06:31:12 437.250
KKS-1 19 Aug 06:24:30 06:28:15 26° 265° (W) 06:32:01 437.445
XW-2F 19 Aug 06:26:58 06:27:55 11° 90° (E) 06:28:52 145.980 - 146.000
AO-7 19 Aug 06:49:25 06:56:30 33° 304° (NW) 07:03:34 .
KAITUO 1B 19 Aug 06:54:13 06:56:56 18° 93° (E) 06:59:38 145.475/437.950
LilacSat-2 19 Aug 07:07:58 07:11:35 38° 98° (E) 07:15:14 437.200
STARS 19 Aug 07:09:30 07:12:50 21° 266° (W) 07:16:11 437.465
XW-2D 19 Aug 07:14:47 07:18:29 44° 99° (E) 07:22:10 145.860 - 145.880
SO-50 19 Aug 07:16:20 07:18:23 13° 33° (NNE) 07:20:27 436.795
NO-84 19 Aug 07:18:15 07:18:36 10° 13° (NNE) 07:18:58 435.350 FM
PCSat 19 Aug 07:22:53 07:26:33 18° 40° (NE) 07:30:12 145.827
BEESAT 3 19 Aug 07:23:53 07:27:35 34° 311° (NW) 07:31:20 437.485
XW-2B 19 Aug 07:25:41 07:29:30 59° 101° (E) 07:33:17 145.730 - 145.750
NUDT-PHONESAT 19 Aug 07:29:26 07:33:04 47° 99° (E) 07:36:41 437.300
STRAND 1 19 Aug 07:30:43 07:35:37 48° 70° (ENE) 07:40:31 437.568
BEESAT 2 19 Aug 07:32:20 07:36:19 80° 304° (NW) 07:40:24 435.950
CUTE 1.7 + AOD 2 19 Aug 07:34:07 07:36:21 14° 90° (E) 07:38:35 437.475
AO-85 19 Aug 07:35:40 07:39:22 39° 310° (NW) 07:43:05 145.980
XW-2C 19 Aug 07:44:38 07:48:29 79° 282° (WNW) 07:52:19 145.795 - 145.815
CUTE-I 19 Aug 07:50:27 07:55:48 78° 103° (ESE) 08:01:06 437.470
XW-2F 19 Aug 07:58:36 08:02:21 56° 286° (WNW) 08:06:07 145.980 - 146.000
DOVE 4 19 Aug 08:01:01 08:04:38 23° 295° (WNW) 08:08:05 437.250
SEEDS 19 Aug 08:24:42 08:28:29 30° 96° (E) 08:32:15 437.485
KAITUO 1B 19 Aug 08:27:36 08:30:59 31° 289° (WNW) 08:34:22 145.475/437.950
HO-68 19 Aug 08:35:15 08:42:20 60° 102° (ESE) 08:49:23 435.675
LilacSat-2 19 Aug 08:43:04 08:45:34 17° 294° (WNW) 08:48:05 437.200
XW-2D 19 Aug 08:50:09 08:52:17 15° 295° (WNW) 08:54:25 145.860 - 145.880
NO-84 19 Aug 08:53:57 08:56:43 32° 32° (NNE) 08:59:42 435.350 FM
SO-50 19 Aug 08:55:10 08:59:43 66° 54° (NE) 09:04:18 436.795
UWE-3 19 Aug 08:55:38 08:59:27 32° 97° (E) 09:03:17 435.000/436.395/437.385
FO-29 19 Aug 08:58:21 09:05:10 38° 66° (ENE) 09:11:25 435.910
CUBEBUG 2 19 Aug 08:58:28 09:02:35 59° 100° (E) 09:06:48 437.445
XW-2B 19 Aug 09:01:50 09:03:11 12° 297° (WNW) 09:04:31 145.730 - 145.750
XW-2A 19 Aug 09:02:51 09:06:15 73° 102° (ESE) 09:09:38 145.665 - 145.685
NUDT-PHONESAT 19 Aug 09:04:43 09:06:33 13° 295° (WNW) 09:08:23 437.300
PCSat 19 Aug 09:05:16 09:10:44 89° 66° (ENE) 09:16:08 145.827
CUTE 1.7 + AOD 2 19 Aug 09:08:18 09:12:31 54° 287° (WNW) 09:16:42 437.475
STRAND 1 19 Aug 09:11:10 09:15:01 21° 267° (W) 09:18:54 437.568
BEESAT 2 19 Aug 09:13:02 09:14:45 12° 324° (NW) 09:16:30 435.950
Oscar 11 19 Aug 09:14:24 09:17:32 19° 93° (E) 09:20:39 .
AAUSAT CUBESAT 2 19 Aug 09:16:03 09:20:10 51° 99° (E) 09:24:13 437.432
O/OREOS (USA 219) 19 Aug 09:28:11 09:29:16 11° 97° (E) 09:30:22 437.305
UNISAT 6 19 Aug 09:28:19 09:31:24 19° 65° (ENE) 09:34:28 437.425
CUTE-I 19 Aug 09:32:06 09:35:11 16° 301° (WNW) 09:38:16 437.470
ZACube-1 19 Aug 09:39:39 09:43:50 54° 100° (E) 09:48:06 437.345
SEEDS 19 Aug 10:00:35 10:04:02 24° 292° (WNW) 10:07:28 437.485
AO-73 19 Aug 10:02:01 10:06:18 85° 104° (ESE) 10:10:39 145.935
TIGRISAT 19 Aug 10:02:51 10:06:54 39° 71° (ENE) 10:10:54 435.000
PRISM 19 Aug 10:08:49 10:12:37 35° 70° (ENE) 10:16:26 437.425
RS-15 19 Aug 10:13:18 10:20:09 17° 95° (E) 10:27:01 29.354- 29.394
EO-88 19 Aug 10:17:26 10:18:37 11° 91° (E) 10:19:47 145.990 - 145.960
HO-68 19 Aug 10:23:41 10:29:37 29° 301° (WNW) 10:35:33 435.675
NO-84 19 Aug 10:31:21 10:34:04 26° 228° (SW) 10:36:57 435.350 FM
UWE-3 19 Aug 10:32:24 10:35:44 23° 293° (WNW) 10:39:08 435.000/436.395/437.385
CUBEBUG 2 19 Aug 10:36:44 10:38:46 13° 297° (WNW) 10:40:47 437.445
SO-50 19 Aug 10:37:03 10:39:40 15° 250° (WSW) 10:42:18 436.795
DELFI C3 19 Aug 10:39:40 10:43:25 37° 98° (E) 10:47:06 145.870
Tancredo 1 19 Aug 10:40:38 10:43:28 49° 142° (SE) 10:46:18 437.200
FO-29 19 Aug 10:42:41 10:50:01 48° 261° (W) 10:56:47 435.910
Oscar 11 19 Aug 10:49:44 10:53:49 40° 289° (WNW) 10:57:52 .
Max Valier Satellite 19 Aug 10:50:46 10:54:14 37° 98° (E) 10:57:42 145.860
PCSat 19 Aug 10:51:05 10:53:17 13° 258° (WSW) 10:55:30 145.827
AAUSAT CUBESAT 2 19 Aug 10:52:45 10:55:11 15° 296° (WNW) 10:57:36 437.432
O/OREOS (USA 219) 19 Aug 11:03:32 11:08:00 74° 295° (WNW) 11:12:29 437.305
UNISAT 6 19 Aug 11:03:44 11:07:50 40° 262° (W) 11:11:55 437.425
M-CUBED/EXP-1 PRIME 19 Aug 11:15:09 11:19:25 45° 66° (ENE) 11:23:53 437.505
ISS 19 Aug 11:16:53 11:19:49 31° 138° (SE) 11:22:46 437.550
ZACube-1 19 Aug 11:17:16 11:19:42 15° 296° (WNW) 11:22:11 437.345
DUCHIFAT 1 19 Aug 11:18:00 11:19:45 12° 62° (ENE) 11:21:30 145.980
nSIGHT-1 19 Aug 11:27:30 11:30:37 41° 140° (SE) 11:33:43 .
AIST 2D 19 Aug 11:31:57 11:35:15 43° 74° (ENE) 11:38:36 435.315
TIGRISAT 19 Aug 11:40:39 11:43:44 19° 267° (W) 11:46:48 435.000
PRISM 19 Aug 11:44:54 11:47:58 20° 266° (W) 11:51:04 437.425
EO-88 19 Aug 11:48:59 11:52:34 48° 286° (WNW) 11:56:06 145.990 - 145.960
LO-87 19 Aug 11:52:14 11:54:55 20° 94° (E) 11:57:35 145.935 - 145.965
NANOSAT C BR1 19 Aug 11:59:28 12:03:20 37° 70° (ENE) 12:07:12 145.865
POLYITAN 1 19 Aug 12:02:12 12:06:12 45° 72° (ENE) 12:10:12 437.675
DELFI C3 19 Aug 12:15:10 12:17:53 18° 294° (WNW) 12:20:35 145.870
Tancredo 1 19 Aug 12:16:18 12:18:48 25° 339° (NNW) 12:21:19 437.200
QB50P2 19 Aug 12:16:59 12:21:10 73° 75° (ENE) 12:25:23 145.880/145.840
RS-15 19 Aug 12:18:12 12:30:17 71° 117° (ESE) 12:42:33 29.354- 29.394
EO-79 19 Aug 12:18:23 12:22:34 69° 74° (ENE) 12:26:44 145.935-145.965
Max Valier Satellite 19 Aug 12:25:33 12:27:45 15° 294° (WNW) 12:29:59 145.860
Oscar 19 19 Aug 12:43:26 12:46:45 17° 60° (ENE) 12:50:04 437.125/150
M-CUBED/EXP-1 PRIME 19 Aug 12:50:42 12:54:01 20° 263° (W) 12:57:26 437.505
DUCHIFAT 1 19 Aug 12:50:44 12:54:53 65° 259° (WSW) 12:59:02 145.980
ISS 19 Aug 12:53:09 12:56:15 38° 335° (NNW) 12:59:21 437.550
BUGSAT 1 19 Aug 12:58:30 13:02:22 41° 71° (ENE) 13:06:12 437.445
nSIGHT-1 19 Aug 13:04:04 13:07:03 32° 338° (NNW) 13:10:03 .
AIST 2D 19 Aug 13:07:39 13:08:41 11° 270° (W) 13:09:45 435.315
ESTCUBE 1 19 Aug 13:09:00 13:13:35 83° 282° (WNW) 13:18:06 437.505/2401.250
VELOX 1 19 Aug 13:24:06 13:27:58 29° 96° (E) 13:31:48 145.980
LO-87 19 Aug 13:25:23 13:28:18 24° 291° (WNW) 13:31:13 145.935 - 145.965
NANOSAT C BR1 19 Aug 13:36:10 13:39:10 19° 267° (W) 13:42:10 145.865
POLYITAN 1 19 Aug 13:39:36 13:42:12 16° 268° (W) 13:44:49 437.675
Gurwin Techsat 1B 19 Aug 13:40:25 13:45:15 37° 67° (ENE) 13:50:06 435.225
SPROUT 19 Aug 13:45:21 13:49:34 63° 101° (E) 13:53:46 437.525
Tancredo 1 19 Aug 13:52:57 13:54:44 15° 360° (N) 13:56:32 437.200
EO-79 19 Aug 13:57:58 13:58:46 10° 271° (W) 13:59:34 145.935-145.965
BEESAT 3 19 Aug 14:02:26 14:05:35 22° 44° (NE) 14:08:42 437.485
AO-7 19 Aug 14:06:06 14:12:12 23° 50° (NE) 14:18:18 .
BEESAT 2 19 Aug 14:12:59 14:14:44 12° 36° (NE) 14:16:27 435.950
Oscar 19 19 Aug 14:20:24 14:25:30 66° 258° (WSW) 14:30:40 437.125/150
AO-85 19 Aug 14:25:00 14:28:37 26° 46° (NE) 14:32:25 145.980
50 SAT 19 Aug 14:30:38 14:34:00 64° 101° (ESE) 14:37:20 437.505
ISS 19 Aug 14:31:00 14:33:22 18° 355° (N) 14:35:44 437.550
RS-15 19 Aug 14:32:08 14:43:44 44° 322° (NW) 14:55:22 29.354- 29.394
BUGSAT 1 19 Aug 14:35:16 14:37:53 16° 267° (W) 14:40:32 437.445
nSIGHT-1 19 Aug 14:41:50 14:44:08 18° 358° (N) 14:46:26 .
UKube-1 19 Aug 14:49:24 14:53:34 44° 99° (E) 14:57:40 .
VELOX 1 19 Aug 15:00:35 15:04:20 27° 293° (WNW) 15:08:03 145.980
YUBILEINY 19 Aug 15:02:15 15:06:09 14° 73° (ENE) 15:10:02 435.215
DX 1 19 Aug 15:07:18 15:11:40 76° 286° (WNW) 15:16:00 434.975-435.025
Gurwin Techsat 1B 19 Aug 15:20:37 15:25:14 30° 265° (W) 15:29:53 435.225
SPROUT 19 Aug 15:22:59 15:24:57 13° 298° (WNW) 15:26:54 437.525
Tancredo 1 19 Aug 15:28:11 15:30:40 24° 20° (NNE) 15:33:08 437.200
ITAMSAT 1 19 Aug 15:36:18 15:41:17 49° 70° (ENE) 15:46:18 435.822/435.867
BEESAT 3 19 Aug 15:39:33 15:43:20 42° 243° (WSW) 15:47:02 437.485
BEESAT 2 19 Aug 15:49:04 15:53:10 79° 55° (NE) 15:57:11 435.950
AO-7 19 Aug 15:55:31 16:03:55 89° 71° (ENE) 16:12:20 .
AO-85 19 Aug 16:05:02 16:09:06 39° 242° (WSW) 16:13:26 145.980
ISS 19 Aug 16:07:57 16:10:40 23° 16° (NNE) 16:13:21 437.550
MOZHAYETS 4 19 Aug 16:14:09 16:18:22 34° 97° (E) 16:22:34
BEESAT 19 Aug 16:15:29 16:19:58 40° 98° (E) 16:24:27 436.000
nSIGHT-1 19 Aug 16:18:30 16:21:19 26° 18° (NNE) 16:24:06 .
UKube-1 19 Aug 16:26:17 16:29:14 18° 296° (WNW) 16:32:11 .
CUBESAT XI-V 19 Aug 16:32:02 16:33:13 11° 88° (E) 16:34:25 437.345
ITUPSAT 1 19 Aug 16:48:31 16:53:19 85° 103° (ESE) 16:58:06 437.325
RS-15 19 Aug 16:50:50 17:00:37 26° 355° (N) 17:10:13 29.354- 29.394
YUBILEINY 19 Aug 16:52:33 17:01:17 73° 94° (E) 17:10:01 435.215
Tancredo 1 19 Aug 17:03:12 17:06:02 53° 218° (SW) 17:08:52 437.200
ITAMSAT 1 19 Aug 17:17:02 17:21:00 22° 267° (W) 17:24:58 435.822/435.867
HO-68 19 Aug 17:25:12 17:25:21 10° 45° (NE) 17:25:30 435.675
DOVE 4 19 Aug 17:27:52 17:32:53 45° 71° (ENE) 17:37:48 437.250
CUTE-I 19 Aug 17:35:13 17:39:00 20° 61° (ENE) 17:42:46 437.470
KAITUO 1B 19 Aug 17:37:04 17:37:50 10° 63° (ENE) 17:38:35 145.475/437.950
ISS 19 Aug 17:44:11 17:47:27 86° 214° (SW) 17:50:43 437.550
LilacSat-2 19 Aug 17:51:03 17:53:59 22° 68° (ENE) 17:56:56 437.200
MOZHAYETS 4 19 Aug 17:51:35 17:55:22 26° 293° (WNW) 17:59:09
AO-7 19 Aug 17:52:04 17:57:40 19° 270° (W) 18:03:20 .
BEESAT 19 Aug 17:53:46 17:57:31 23° 295° (WNW) 18:01:14 436.000
nSIGHT-1 19 Aug 17:54:41 17:57:54 65° 217° (SW) 18:01:06 .
XW-2D 19 Aug 17:57:05 18:00:09 24° 69° (ENE) 18:03:15 145.860 - 145.880
CUBESAT XI-V 19 Aug 18:06:25 18:11:10 80° 285° (WNW) 18:15:52 437.345
XW-2B 19 Aug 18:07:47 18:11:06 31° 71° (ENE) 18:14:27 145.730 - 145.750
NUDT-PHONESAT 19 Aug 18:09:43 18:12:42 24° 69° (ENE) 18:15:41 437.300
KKS-1 19 Aug 18:13:30 18:17:52 53° 101° (E) 18:22:11 437.445
XW-2C 19 Aug 18:26:23 18:30:02 53° 74° (ENE) 18:33:44 145.795 - 145.815
ITUPSAT 1 19 Aug 18:28:33 18:30:26 12° 301° (WNW) 18:32:20 437.325
CUTE 1.7 + AOD 2 19 Aug 18:28:39 18:30:11 12° 61° (ENE) 18:31:44 437.475
XW-2F 19 Aug 18:39:45 18:43:29 75° 75° (ENE) 18:47:14 145.980 - 146.000
YUBILEINY 19 Aug 18:51:52 18:58:55 26° 295° (WNW) 19:06:00 435.215
STARS 19 Aug 18:56:24 19:00:45 64° 102° (ESE) 19:05:04 437.465
HO-68 19 Aug 19:04:36 19:11:23 49° 66° (ENE) 19:18:11 435.675
DOVE 4 19 Aug 19:06:25 19:10:41 24° 267° (W) 19:14:54 437.250
RS-15 19 Aug 19:06:58 19:18:01 37° 30° (NNE) 19:28:33 29.354- 29.394
KAITUO 1B 19 Aug 19:07:39 19:11:17 61° 259° (W) 19:15:00 145.475/437.950
CUTE-I 19 Aug 19:13:16 19:18:33 61° 259° (WSW) 19:23:53 437.470
SEEDS 19 Aug 19:17:17 19:20:40 24° 67° (ENE) 19:24:05 437.485
ISS 19 Aug 19:22:38 19:23:26 11° 230° (SW) 19:24:14 437.550
LilacSat-2 19 Aug 19:24:54 19:28:07 27° 264° (W) 19:31:23 437.200
XW-2D 19 Aug 19:31:14 19:34:16 23° 265° (W) 19:37:21 145.860 - 145.880
O/OREOS (USA 219) 19 Aug 19:33:42 19:37:36 27° 58° (ENE) 19:41:28 437.305
XW-2A 19 Aug 19:35:05 19:37:53 25° 70° (ENE) 19:40:42 145.665 - 145.685
STRAND 1 19 Aug 19:41:37 19:44:27 15° 90° (E) 19:47:17 437.568
XW-2B 19 Aug 19:42:42 19:45:21 18° 267° (W) 19:48:01 145.730 - 145.750
NUDT-PHONESAT 19 Aug 19:43:34 19:46:31 22° 265° (W) 19:49:29 437.300
KKS-1 19 Aug 19:51:14 19:53:59 16° 298° (WNW) 19:56:44 437.445
UWE-3 19 Aug 19:53:37 19:57:12 28° 69° (ENE) 20:00:47 435.000/436.395/437.385
CUBEBUG 2 19 Aug 19:57:09 20:01:20 53° 73° (ENE) 20:05:27 437.445
CUTE 1.7 + AOD 2 19 Aug 20:01:13 20:05:25 71° 259° (W) 20:09:41 437.475
XW-2C 19 Aug 20:03:37 20:04:33 11° 270° (W) 20:05:30 145.795 - 145.815
AAUSAT CUBESAT 2 19 Aug 20:06:42 20:10:32 37° 71° (ENE) 20:14:24 437.432
Oscar 11 19 Aug 20:10:27 20:13:15 17° 64° (ENE) 20:16:04 .
STARS 19 Aug 20:34:23 20:36:34 14° 299° (WNW) 20:38:44 437.465
ZACube-1 19 Aug 20:36:13 20:40:10 44° 72° (ENE) 20:44:07 437.345
SEEDS 19 Aug 20:52:29 20:56:12 30° 264° (W) 20:59:58 437.485
HO-68 19 Aug 20:52:53 20:59:15 34° 264° (W) 21:05:40 435.675
AO-73 19 Aug 20:58:07 21:02:14 71° 75° (ENE) 21:06:21 145.935
XW-2A 19 Aug 21:08:25 21:10:37 17° 266° (W) 21:12:52 145.665 - 145.685
O/OREOS (USA 219) 19 Aug 21:12:57 21:17:00 32° 255° (WSW) 21:21:03 437.305
STRAND 1 19 Aug 21:19:02 21:24:07 68° 287° (WNW) 21:29:10 437.568
RS-15 19 Aug 21:20:03 21:32:13 89° 235° (SW) 21:43:41 29.354- 29.394
DELFI C3 19 Aug 21:25:54 21:29:10 25° 68° (ENE) 21:32:28 145.870
UWE-3 19 Aug 21:30:11 21:33:39 25° 265° (W) 21:37:05 435.000/436.395/437.385
Max Valier Satellite 19 Aug 21:30:57 21:33:38 20° 68° (ENE) 21:36:20 145.860
CUBEBUG 2 19 Aug 21:36:07 21:38:15 14° 269° (W) 21:40:23 437.445
AAUSAT CUBESAT 2 19 Aug 21:43:07 21:46:07 19° 267° (W) 21:49:07 437.432
Oscar 11 19 Aug 21:44:52 21:49:01 47° 261° (W) 21:53:12 .
FO-29 19 Aug 21:52:54 21:57:07 22° 91° (E) 22:01:06 435.910
ZACube-1 19 Aug 22:14:12 22:16:41 15° 268° (W) 22:19:11 437.345
EO-88 19 Aug 22:26:57 22:30:33 76° 77° (ENE) 22:34:12 145.990 - 145.960
LO-87 19 Aug 22:31:01 22:31:51 11° 64° (ENE) 22:32:40 145.935 - 145.965
ESTCUBE 1 19 Aug 22:35:49 22:37:20 12° 60° (ENE) 22:38:51 437.505/2401.250
UNISAT 6 19 Aug 22:53:58 22:57:57 35° 97° (E) 23:01:57 437.425
DELFI C3 19 Aug 23:00:28 23:03:51 26° 265° (W) 23:07:15 145.870
Max Valier Satellite 19 Aug 23:04:09 23:07:18 27° 264° (W) 23:10:29 145.860
SO-50 19 Aug 23:11:56 23:14:41 16° 110° (ESE) 23:17:26 436.795
PRISM 19 Aug 23:23:54 23:27:56 50° 100° (E) 23:31:55 437.425
TIGRISAT 19 Aug 23:29:14 23:33:33 80° 104° (ESE) 23:37:55 435.000
RS-15 19 Aug 23:34:20 23:42:54 24° 261° (W) 23:51:11 29.354- 29.394
FO-29 19 Aug 23:37:10 23:42:38 48° 291° (WNW) 23:47:40 435.910
PCSat 19 Aug 23:47:25 23:52:48 70° 117° (ESE) 23:58:13 145.827
LO-87 20 Aug 00:01:16 00:04:48 55° 260° (W) 00:08:20 145.935 - 145.965
QB50P2 20 Aug 00:03:17 00:04:23 11° 89° (E) 00:05:28 145.880/145.840
ESTCUBE 1 20 Aug 00:08:57 00:13:27 83° 259° (W) 00:18:00 437.505/2401.250
VELOX 1 20 Aug 00:22:00 00:25:51 30° 68° (ENE) 00:29:43 145.980
M-CUBED/EXP-1 PRIME 20 Aug 00:27:40 00:31:26 27° 99° (E) 00:34:58 437.505
AIST 2D 20 Aug 00:28:50 00:32:17 48° 100° (E) 00:35:44 435.315
DX 1 20 Aug 00:30:34 00:32:01 11° 60° (ENE) 00:33:28 434.975-435.025
UNISAT 6 20 Aug 00:31:09 00:34:27 22° 294° (WNW) 00:37:48 437.425
DUCHIFAT 1 20 Aug 00:34:31 00:37:23 18° 93° (E) 00:40:14 145.980
SPROUT 20 Aug 00:39:07 00:43:15 52° 73° (ENE) 00:47:24 437.525
SO-50 20 Aug 00:50:12 00:54:40 60° 307° (NW) 00:59:09 436.795
PRISM 20 Aug 01:00:22 01:02:47 15° 297° (WNW) 01:05:11 437.425
50 SAT 20 Aug 01:02:34 01:05:24 25° 70° (ENE) 01:08:15 437.505
TIGRISAT 20 Aug 01:08:35 01:09:37 11° 299° (WNW) 01:10:40 435.000
NANOSAT C BR1 20 Aug 01:17:51 01:22:00 61° 101° (E) 01:26:09 145.865
POLYITAN 1 20 Aug 01:21:19 01:25:31 76° 101° (E) 01:29:44 437.675
PCSat 20 Aug 01:32:34 01:36:44 22° 317° (NW) 01:40:54 145.827
QB50P2 20 Aug 01:36:24 01:40:36 66° 286° (WNW) 01:44:46 145.880/145.840
EO-79 20 Aug 01:37:33 01:41:44 71° 286° (WNW) 01:45:55 145.935-145.965
UKube-1 20 Aug 01:44:23 01:48:28 42° 70° (ENE) 01:52:34 .
NO-84 20 Aug 01:49:14 01:51:18 18° 130° (SE) 01:53:21 435.350 FM
Gurwin Techsat 1B 20 Aug 01:57:20 01:59:40 13° 88° (E) 02:01:58 435.225
VELOX 1 20 Aug 01:58:27 02:02:15 27° 264° (W) 02:06:05 145.980
M-CUBED/EXP-1 PRIME 20 Aug 02:01:56 02:05:47 30° 298° (WNW) 02:09:25 437.505
DX 1 20 Aug 02:03:09 02:07:32 79° 255° (WSW) 02:11:57 434.975-435.025
AIST 2D 20 Aug 02:03:45 02:05:03 12° 295° (WNW) 02:06:21 435.315
DUCHIFAT 1 20 Aug 02:09:18 02:13:12 39° 289° (WNW) 02:17:06 145.980
BUGSAT 1 20 Aug 02:14:04 02:18:04 62° 101° (ESE) 02:22:03 437.445
SPROUT 20 Aug 02:17:11 02:19:27 14° 269° (W) 02:21:44 437.525
ITUPSAT 1 20 Aug 02:21:05 02:23:28 14° 60° (ENE) 02:25:50 437.325
Oscar 19 20 Aug 02:31:04 02:35:58 40° 98° (E) 02:40:50 437.125/150
SO-50 20 Aug 02:34:21 02:36:04 12° 328° (NNW) 02:37:47 436.795
50 SAT 20 Aug 02:35:36 02:38:03 18° 266° (W) 02:40:32 437.505
NANOSAT C BR1 20 Aug 02:55:15 02:57:13 13° 298° (WNW) 02:59:09 145.865
POLYITAN 1 20 Aug 02:59:32 03:00:41 11° 299° (WNW) 03:01:51 437.675
YUBILEINY 20 Aug 03:01:54 03:09:52 37° 70° (ENE) 03:17:45 435.215
MOZHAYETS 4 20 Aug 03:16:45 03:20:54 36° 69° (ENE) 03:25:04
UKube-1 20 Aug 03:21:42 03:24:41 18° 267° (W) 03:27:40 .
BEESAT 20 Aug 03:22:28 03:27:05 52° 71° (ENE) 03:31:42 436.000
NO-84 20 Aug 03:25:49 03:28:30 35° 327° (NNW) 03:31:09 435.350 FM
Gurwin Techsat 1B 20 Aug 03:34:53 03:40:15 82° 286° (WNW) 03:45:33 435.225
CUBESAT XI-V 20 Aug 03:35:56 03:38:05 13° 60° (ENE) 03:40:15 437.345
ITAMSAT 1 20 Aug 03:49:31 03:52:30 15° 90° (E) 03:55:30 435.822/435.867
BUGSAT 1 20 Aug 03:51:23 03:52:54 12° 298° (WNW) 03:54:26 437.445
ITUPSAT 1 20 Aug 03:55:55 04:00:40 75° 257° (WSW) 04:05:26 437.325
AO-7 20 Aug 03:56:56 04:03:49 28° 94° (E) 04:10:38 .
Oscar 19 20 Aug 04:10:45 04:15:05 27° 295° (WNW) 04:19:23 437.125/150
